* Astronomy

Members Login
Username 
 
Password 
    Remember Me  
Post Info TOPIC: Asteroid 2006 FZ51


L

Posts: 131433
Date:
Asteroid 2006 FZ51
Permalink  
 


Orbital elements:
2006 FZ51
Epoch 2012 Mar. 14.0 TT = JDT 2456000.5                 MPC
M 340.14102              (2000.0)            P               Q
n   0.16482314     Peri.  322.82079     -0.03924782     +0.99660278
a   3.2945082      Node   304.81904     -0.89426952     -0.06736122
e   0.5043757      Incl.    5.05982     -0.44580448     +0.04738535
P   5.98           H   16.9           G   0.15           U   2

MPEC 2012 - J05



__________________
Page 1 of 1  sorted by
 
Quick Reply

Please log in to post quick replies.



Create your own FREE Forum
Report Abuse
Powered by ActiveBoard